User: anonymous
Location: SAPM � Hemmingford
(45.0500°N, 73.5833°W)
Time: 15:14:31
(UTC-04:00)
Language:

Cosmos 1674 Rocket - Orbit

View from above orbital plane
View from above orbital plane
View from above satellite
View from above satellite

Ground track
Ground track

The orbit data is extracted from the following two-line orbital elements,

1 15945U 85069B   14207.08342385  .00000150  00000-0  15269-4 0  7103
2 15945 082.5261 042.7376 0020734 166.0138 341.0669 14.83368908564284
Epoch (UTC): 26 July 2014 02:00:07
Eccentricity: 0.0020734
inclination: 82.5261°
perigee height: 604 km
apogee height: 633 km
right ascension of ascending node: 42.7376°
argument of perigee: 166.0138°
revolutions per day: 14.83368908
mean anomaly at epoch: 341.0669°
orbit number at epoch: 56428

The dashed part of the orbit path shows where the satellite is in the earth's shadow,  

DLR